sat.trackr.live / text

‹ back to catalog

HULIANWANG DIGUI-43

NORAD 65046 · 2025-162D

PAYLOAD ACTIVE UNKNOWN

§ Identity

Operator
Country
PRC
Launch date
2025-07-30
Launch site
WSC
Launch vehicle
Mass (kg)
RCS (m²)

External: N2YO · Heavens-Above · Gunter

§ Orbital elements

Epoch: 2026-05-25T03:15:58.416192Z

Period
108.33 min
Inclination
50.0004°
Eccentricity
0.0000486
Mean motion
13.29322706 rev/d
Perigee alt
1,149.0 km
Apogee alt
1,149.7 km
Semi-major
7,527.5 km
B*
7.4914e-5
RAAN
348.3834°
Arg perigee
48.0235°
Mean anomaly
312.0678°
Rev number
4,029

§ Raw data

HULIANWANG DIGUI-431 65046U 25162D   26145.13609278 -.00000089  00000+0  74914-4 0  99972 65046  50.0004 348.3834 0000486  48.0235 312.0678 13.29322706 40292

JSON: /api/v1/satellites/65046 · /tle

For live sub-satellite position, see the globe view (requires WebGL).

§ Visibility from observer

Set your observer location to see the next 7 days of passes ≥ 10°. The values pass through the URL so the page stays shareable.

No JS? Fill the form by hand. The geolocation button needs JavaScript.